Location: Krakow
(50.0830°N, 19.9170°E)
Time: 07:34:11
(UTC+02:00)

A-11 Canister half - Pass Details

Date: 15 March 2026
Orbit: 1523 x 1684 km, 47.3° (Epoch: 18 April)

Event Time Altitude Azimuth Distance (km) Brightness Sun altitude
Rises 17:19:59 0° 284° (WNW) 4,728 13.1 3.2°
Reaches altitude 10° 17:25:38 10° 258° (WSW) 3,712 13.4 2.3°
Maximum altitude 17:28:52 12° 237° (WSW) 3,517 12.1 1.8°
Drops below altitude 10° 17:32:07 10° 216° (SW) 3,686 11.7 1.2°
Sets 17:37:43 0° 189° (S) 4,657 11.7 0.4°
